This is the latest recevied weather packets stored in our database for station/object VE6EN. If no packets are shown the sender has not sent any weather packets the latest 1 day(s).
| Time | Temp. | Humidity | Pressure | Rain* | Wind** | Luminosity | Snow |
|---|---|---|---|---|---|---|---|
| 1778028600 | 11.11° C | 28% | 1015.5 hPa | 0 mm | 0.89 m/s, 37° | - | - |
| 1778028004 | 11.11° C | 28% | 1015.5 hPa | 0 mm | 0.89 m/s, 65° | - | - |
| 1778027403 | 11.67° C | 28% | 1015.6 hPa | 0 mm | 0.89 m/s, 76° | - | - |
| 1778026805 | 11.67° C | 27% | 1015.6 hPa | 0 mm | 0.89 m/s, 63° | - | - |
| 1778026204 | 11.11° C | 29% | 1015.7 hPa | 0 mm | 0.45 m/s, 69° | - | - |
| 1778025600 | 11.11° C | 30% | 1015.8 hPa | 0 mm | 0.45 m/s, 69° | - | - |
| 1778024999 | 11.11° C | 31% | 1015.9 hPa | 0 mm | 0.89 m/s, 76° | - | - |
| 1778024399 | 10.56° C | 31% | 1015.9 hPa | 0 mm | 0.89 m/s, 92° | - | - |
| 1778023800 | 11.11° C | 31% | 1016 hPa | 0 mm | 0.45 m/s, 78° | - | - |
| 1778023204 | 11.11° C | 32% | 1015.9 hPa | 0 mm | 0.89 m/s, 69° | - | - |
| 1778022604 | 11.11° C | 30% | 1016.1 hPa | 0 mm | 0.89 m/s, 76° | - | - |
| 1778021999 | 10.56° C | 31% | 1016.2 hPa | 0 mm | 0.89 m/s, 50° | - | - |
| 1778021400 | 10.56° C | 33% | 1016.4 hPa | 0 mm | 0.45 m/s, 65° | - | - |
| 1778020799 | 10° C | 31% | 1016.5 hPa | 0 mm | 0.45 m/s, 80° | - | - |
| 1778020216 | 10.56° C | 32% | 1016.5 hPa | 0 mm | 1.34 m/s, 50° | - | - |
| 1778019599 | 10.56° C | 32% | 1016.5 hPa | 0 mm | 1.34 m/s, 80° | - | - |
| 1778019005 | 10.56° C | 33% | 1016.7 hPa | 0 mm | 1.79 m/s, 130° | - | - |
| 1778018400 | 10.56° C | 33% | 1016.8 hPa | 0 mm | 0.89 m/s, 98° | - | - |
| 1778017799 | 10.56° C | 33% | 1016.8 hPa | 0 mm | 0.89 m/s, 82° | - | - |
| 1778017199 | 10.56° C | 34% | 1017 hPa | 0 mm | 0.89 m/s, 45° | - | - |
| 1778016602 | 10.56° C | 33% | 1017 hPa | 0 mm | 0.89 m/s, 64° | - | - |
| 1778016004 | 10.56° C | 34% | 1017.3 hPa | 0 mm | 0.89 m/s, 74° | - | - |
| 1778015400 | 10° C | 35% | 1017.3 hPa | 0 mm | 1.34 m/s, 77° | - | - |
| 1778014799 | 10.56° C | 34% | 1017.5 hPa | 0 mm | 0.89 m/s, 91° | - | - |
| 1778014204 | 10° C | 35% | 1017.6 hPa | 0 mm | 0.45 m/s, 225° | - | - |
* Rain latest hour (hover to see other rain measurements)
** Current wind speed in m/s (hover to see current wind gust speed)